This is the latest recevied weather packets stored in our database for station/object KE8ZLU. If no packets are shown the sender has not sent any weather packets the latest 10 day(s).
| Time | Temp. | Humidity | Pressure | Rain* | Wind** | Luminosity | Snow |
|---|---|---|---|---|---|---|---|
| 1777979913 | 11.67° C | 70% | 1005.2 hPa | 0 mm | - | 27 W/m² | - |
| 1777979609 | 11.67° C | 70% | 1004.9 hPa | 0 mm | - | 25 W/m² | - |
| 1777979305 | 11.67° C | 72% | 1004.8 hPa | 0 mm | - | 26 W/m² | - |
| 1777979003 | 11.67° C | 72% | 1005 hPa | 0 mm | - | 20 W/m² | - |
| 1777978699 | 11.67° C | 73% | 1004.7 hPa | 0 mm | - | 18 W/m² | - |
| 1777978395 | 11.67° C | 75% | 1004.7 hPa | 0 mm | - | 12 W/m² | - |
| 1777978091 | 11.67° C | 78% | 1004.5 hPa | 0 mm | - | 10 W/m² | - |
| 1777977789 | 12.22° C | 75% | 1004.5 hPa | 0 mm | - | 6 W/m² | - |
| 1777977485 | 12.22° C | 74% | 1004.2 hPa | 0 mm | - | 3 W/m² | - |
| 1777977183 | 12.22° C | 72% | 1003.9 hPa | 0 mm | - | 2 W/m² | - |
| 1777976880 | 12.22° C | 73% | 1004.3 hPa | 0 mm | - | 1 W/m² | - |
| 1777976578 | 12.22° C | 73% | 1004.1 hPa | 0 mm | - | 1 W/m² | - |
| 1777976277 | 12.78° C | 72% | 1004.2 hPa | 0 mm | - | 0 W/m² | - |
| 1777975972 | 12.78° C | 70% | 1004.2 hPa | 0 mm | - | 0 W/m² | - |
| 1777975669 | 12.78° C | 77% | 1003.9 hPa | 0 mm | - | 0 W/m² | - |
| 1777975365 | 12.78° C | 81% | 1003.9 hPa | 0 mm | - | 0 W/m² | - |
| 1777975061 | 12.78° C | 83% | 1004 hPa | 0 mm | - | 0 W/m² | - |
| 1777974759 | 12.78° C | 84% | 1004 hPa | 0 mm | - | 0 W/m² | - |
| 1777974455 | 12.78° C | 85% | 1003.8 hPa | 0 mm | - | 0 W/m² | - |
| 1777974151 | 12.78° C | 85% | 1003.3 hPa | 0 mm | - | 0 W/m² | - |
| 1777973847 | 12.78° C | 86% | 1003.1 hPa | 0 mm | - | 0 W/m² | - |
| 1777973545 | 12.78° C | 87% | 1003.4 hPa | 0 mm | - | 0 W/m² | - |
| 1777973242 | 12.22° C | 88% | 1003.3 hPa | 0 mm | - | 0 W/m² | - |
| 1777972941 | 12.78° C | 87% | 1003.2 hPa | 0 mm | - | 0 W/m² | - |
| 1777972637 | 12.78° C | 87% | 1003.4 hPa | 0 mm | - | 0 W/m² | - |
* Rain latest hour (hover to see other rain measurements)
** Current wind speed in m/s (hover to see current wind gust speed)